User: anonymous   Login
Location: Unspecified
(0.0000°N, 0.0000°E)
Time: 10:17:30
(UTC+00:00)
Language:

COSMOS 2391 - Orbit

View from above orbital plane
View from above orbital plane
View from above satellite
View from above satellite

Ground track
Ground track

The orbit data is extracted from the following two-line orbital elements,

1 27465U 02036B   17080.86152922 +.00000015 +00000-0 +31552-4 0  9992
2 27465 082.4816 292.5966 0026750 076.8853 283.5209 12.44876262668226
Epoch (UTC): 21 March 2017 20:40:36
Eccentricity: 0.0026750
inclination: 82.4816°
perigee height: 1465 km
apogee height: 1507 km
right ascension of ascending node: 292.5966°
argument of perigee: 76.8853°
revolutions per day: 12.44876262
mean anomaly at epoch: 283.5209°
orbit number at epoch: 66822

The dashed part of the orbit path shows where the satellite is in the earth's shadow,  

DLR